WetterOnline ( https://www.wetteronline.de )

Wetter aktuell Smrzovka

Aktuelles Wetter: Liberec (401m)

6-stündlich | Neueste Meldungen
Ortszeit Temperatur Wetter
Mi, 04.08. 2:00 13.1° C bewölkt
Di, 03.08. 20:00 15.1° C leicht bewölkt
Di, 03.08. 14:00 20.4° C leicht bewölkt
Di, 03.08. 8:00 13.7° C leicht bewölkt
Di, 03.08. 2:00 10.8° C -
Mo, 02.08. 20:00 17.1° C wolkig
Mo, 02.08. 14:00 15.5° C leicht bewölkt
Mo, 02.08. 8:00 14.4° C bewölkt
Ortszeit Temperatur Wetter
Mi, 04.08. 7:00 13.7° C bedeckt
Mi, 04.08. 6:00 13.6° C bedeckt
Mi, 04.08. 5:00 13.2° C bedeckt
Mi, 04.08. 4:00 14.3° C bewölkt
Mi, 04.08. 3:00 13.5° C bedeckt
Mi, 04.08. 2:00 13.1° C bewölkt
Ortszeit Relative Feuchte Sichtweite
Mi, 04.08. 2:00 89% 35 km
Di, 03.08. 20:00 77% 35 km
Di, 03.08. 14:00 59% 35 km
Di, 03.08. 8:00 88% 15 km
Di, 03.08. 2:00 94% 23 km
Mo, 02.08. 20:00 66% 45 km
Mo, 02.08. 14:00 85% 35 km
Mo, 02.08. 8:00 86% 25 km
Ortszeit Relative Feuchte Sichtweite
Mi, 04.08. 7:00 91% 35 km
Mi, 04.08. 6:00 89% 35 km
Mi, 04.08. 5:00 92% 35 km
Mi, 04.08. 4:00 84% 35 km
Mi, 04.08. 3:00 88% 35 km
Mi, 04.08. 2:00 89% 35 km
Ortszeit Niederschlagsmenge Niederschlagsart
Mi, 04.08. 2:00 1 l/m2 in 6 Std. Schauer
Di, 03.08. 20:00 1 l/m2 in 12 Std. -
Di, 03.08. 14:00 0.0 l/m2 in 6 Std. -
Di, 03.08. 8:00 0.0 l/m2 in 12 Std. -
Di, 03.08. 2:00 0.0 l/m2 in 6 Std. -
Mo, 02.08. 20:00 0.7 l/m2 in 12 Std. -
Mo, 02.08. 14:00 0.6 l/m2 in 6 Std. Schauer
Mo, 02.08. 8:00 0.0 l/m2 in 12 Std. -
Ortszeit Niederschlagsmenge Niederschlagsart
Mi, 04.08. 7:00 0.1 l/m2 in 1 Std. Regenschauer
Mi, 04.08. 6:00 0.0 l/m2 in 1 Std. -
Mi, 04.08. 5:00 0.0 l/m2 in 1 Std. -
Mi, 04.08. 4:00 0.0 l/m2 in 1 Std. -
Mi, 04.08. 3:00 0.0 l/m2 in 1 Std. -
Mi, 04.08. 2:00 0.0 l/m2 in 1 Std. Schauer
Ortszeit Stärke Spitze Richtung
km/h Bft. km/h Grad Sektor
Mi, 04.08. 2:00 4 1 43 140° SO
Di, 03.08. 20:00 4 1 40 160° S
Di, 03.08. 14:00 11 2 - 160° S
Di, 03.08. 8:00 7 2 - 120° SO
Di, 03.08. 2:00 4 1 - 110° O
Mo, 02.08. 20:00 11 2 - 250° W
Mo, 02.08. 14:00 7 2 40 310° NW
Mo, 02.08. 8:00 4 1 - 30° NO
Ortszeit Stärke Spitze Richtung
km/h Bft. km/h Grad Sektor
Mi, 04.08. 7:00 7 2 - 130° SO
Mi, 04.08. 6:00 7 2 - 130° SO
Mi, 04.08. 5:00 11 2 - 100° O
Mi, 04.08. 4:00 11 2 - 130° SO
Mi, 04.08. 3:00 7 2 - 90° O
Mi, 04.08. 2:00 4 1 43 140° SO
Ortszeit Untergrenze Bedeckung Gattung
total tief tief mittel hoch
Mi, 04.08. 2:00 4500 m - 7/8 - - -
Di, 03.08. 20:00 3000 m 4/8 2/8 - As Ci
Di, 03.08. 14:00 930 m 4/8 3/8 Cu - Ci
Di, 03.08. 8:00 180 m 4/8 4/8 St - -
Di, 03.08. 2:00 - - - - - -
Mo, 02.08. 20:00 1800 m 6/8 4/8 Cu Ac -
Mo, 02.08. 14:00 870 m 5/8 4/8 Cu Ac -
Mo, 02.08. 8:00 1020 m 7/8 6/8 Sc As -
Ortszeit Bedeckungsgrad in Achtel und Wolkenuntergrenze
Mi, 04.08. 7:00 8(2100m)
Mi, 04.08. 6:00 8(1800m)
Mi, 04.08. 5:00 1(330m) 8(1800m)
Mi, 04.08. 4:00 7(2100m)
Mi, 04.08. 3:00 8(4500m)
Mi, 04.08. 2:00 7(4500m)
Ortszeit Luftdruck NN (hPa) Tendenz (hPa in 3 Std.)
Mi, 04.08. 2:00 1014 - 0,8
Di, 03.08. 20:00 1013 - 0,8
Di, 03.08. 14:00 1014 - 1,1
Di, 03.08. 8:00 1016 + 0,1
Di, 03.08. 2:00 1016 + 0,5
Mo, 02.08. 20:00 1013 + 0,6
Mo, 02.08. 14:00 1014 + 0,9
Mo, 02.08. 8:00 1012 + 1,3
Ortszeit Luftdruck NN (hPa) Tendenz (hPa in 3 Std.)
Mi, 04.08. 7:00 1014 + 0,2
Mi, 04.08. 6:00 1014 + 0,2
Mi, 04.08. 5:00 1014 + 0,1
Mi, 04.08. 4:00 1014 + 0,1
Mi, 04.08. 3:00 1014 - 0,2
Mi, 04.08. 2:00 1014 - 0,8
Ortszeit Schneehöhe (cm)
Mi, 04.08. 2:00 -
Di, 03.08. 20:00 0
Di, 03.08. 14:00 -
Di, 03.08. 8:00 -
Di, 03.08. 2:00 -
Mo, 02.08. 20:00 -
Mo, 02.08. 14:00 -
Mo, 02.08. 8:00 -
Ortszeit Schneehöhe (cm)
Mi, 04.08. 7:00 -
Mi, 04.08. 6:00 -
Mi, 04.08. 5:00 -
Mi, 04.08. 4:00 -
Mi, 04.08. 3:00 -
Mi, 04.08. 2:00 -
Link zu dieser Seite / Seite empfehlen

Das Wetter in ...